Newcastle, WY

10:03 AM MDT on October 23, 2017 (GMT -0600)
Mondell

Weather History for KECS - October, 2013

Change the Weather History Date:

Saturday, October 5, 2013

  Actual Average (KCUT) Record (KCUT)
Temperature  
Mean Temperature 32 °F -  
Max Temperature 35 °F 60 °F 83 °F (1963)
Min Temperature 28 °F 32 °F 14 °F (1964)
Degree Days  
Heating Degree Days 34    
Moisture  
Dew Point 29 °F    
Average Humidity 86    
Maximum Humidity 100    
Minimum Humidity 70    
Precipitation  
Precipitation 0.00 in - - ()
Sea Level Pressure  
Sea Level Pressure 30.15 in    
Wind  
Wind Speed 16 mph (NW)    
Max Wind Speed 26 mph    
Max Gust Speed 32 mph    
Averages and records for this station are not official NWS values.
T = Trace of Precipitation, MM = Missing Value Source: NWS Daily Summary

Daily Weather History Graph

Daily Weather History Graph

Search for Another Location

Airport or City:

Trip Planner

Search our weather history database for the weather conditions in past years. The results will help you decide how hot, cold, wet, or windy it might be!

Date:

Astronomy

Oct. 05, 2013 Rise Set
Actual Time 6:59 AM MDT 6:30 PM MDT
Civil Twilight 6:31 AM MDT 6:59 PM MDT
Nautical Twilight 5:57 AM MDT 7:32 PM MDT
Astronomical Twilight 5:24 AM MDT 8:05 PM MDT
Moon 7:44 AM MDT (10/5) 6:47 PM MDT (10/5)
Length of Visible Light 12h 27m
Length of Day
11h 30m
New Moon, 1% of the Moon is Illuminated
Oct 5
New Moon
Oct 11
First Quarter
Oct 18
Full
Oct 26
Last Quarter
Nov 3
New

Hourly Weather History & Observations

Time (MDT) Temp. Windchill Dew Point Humidity Pressure Visibility Wind Dir Wind Speed Gust Speed Precip Events Conditions
9:15 AM - - - N/A% - - North - - N/A   Unknown
9:35 AM - - - N/A% - - North - - N/A   Unknown
9:55 AM - - - N/A% - - North - - N/A   Unknown
10:15 AM - - - N/A% - - North - - N/A   Unknown
10:35 AM - - - N/A% - - North - - N/A   Unknown
10:55 AM - - - N/A% - - North - - N/A   Unknown
11:15 AM - - - N/A% - - North - - N/A   Unknown
11:35 AM - - - N/A% - - North - - N/A   Unknown
11:55 AM - - - N/A% - - North - - N/A   Unknown
12:15 PM 33.8 °F 21.6 °F 26.6 °F 75% 30.16 in - NW 23.0 mph - N/A   Unknown
12:35 PM 35.6 °F 23.2 °F 26.6 °F 70% 30.16 in - NW 26.5 mph 32.2 mph N/A   Clear
12:55 PM 35.6 °F 23.4 °F 26.6 °F 70% 30.15 in - NW 25.3 mph 31.1 mph N/A   Clear
1:15 PM 35.6 °F 24.8 °F 26.6 °F 70% 30.15 in - NW 19.6 mph 25.3 mph N/A   Clear
1:35 PM 35.6 °F 24.8 °F 28.4 °F 75% 30.14 in - NW 19.6 mph 25.3 mph N/A   Clear
1:55 PM 35.6 °F 25.9 °F 28.4 °F 75% 30.14 in - NW 16.1 mph - N/A   Clear
2:15 PM 35.6 °F 25.5 °F 30.2 °F 81% 30.13 in - NW 17.3 mph 21.9 mph N/A   Clear
2:35 PM 35.6 °F 25.9 °F 30.2 °F 81% 30.13 in - NW 16.1 mph - N/A   Clear
2:55 PM 35.6 °F 24.2 °F 28.4 °F 75% 30.13 in - NW 21.9 mph - N/A   Clear
3:15 PM 35.6 °F 25.9 °F 28.4 °F 75% 30.12 in - NW 16.1 mph 24.2 mph N/A   Clear
3:35 PM 35.6 °F 25.2 °F 30.2 °F 81% 30.12 in - NW 18.4 mph 21.9 mph N/A   Clear
3:55 PM 35.6 °F 25.5 °F 30.2 °F 81% 30.12 in - NW 17.3 mph 27.6 mph N/A   Clear
4:15 PM 35.6 °F 24.8 °F 30.2 °F 81% 30.13 in - NW 19.6 mph 25.3 mph N/A   Clear
4:35 PM 35.6 °F 25.2 °F 30.2 °F 81% 30.13 in - NW 18.4 mph 26.5 mph N/A   Clear
4:55 PM 35.6 °F 26.2 °F 30.2 °F 81% 30.14 in - NW 15.0 mph 24.2 mph N/A   Clear
5:15 PM 35.6 °F 25.5 °F 30.2 °F 81% 30.15 in - NW 17.3 mph 21.9 mph N/A   Clear
5:35 PM 35.6 °F 26.6 °F 30.2 °F 81% 30.15 in - NW 13.8 mph 20.7 mph N/A   Clear
5:55 PM 35.6 °F 27.5 °F 30.2 °F 81% 30.15 in - NW 11.5 mph - N/A   Clear
6:15 PM 33.8 °F 25.3 °F 30.2 °F 87% 30.15 in - WNW 11.5 mph - N/A   Clear
6:35 PM 32.0 °F 24.2 °F 30.2 °F 93% 30.15 in - WNW 9.2 mph - N/A   Unknown
6:55 PM 32.0 °F 23.6 °F 30.2 °F 93% 30.15 in - West 10.4 mph - N/A   Unknown
7:15 PM 32.0 °F 23.0 °F 30.2 °F 93% 30.15 in - WNW 11.5 mph - N/A   Unknown
7:35 PM 32.0 °F 26.4 °F 30.2 °F 93% 30.16 in - North 5.8 mph - N/A   Unknown
7:55 PM 32.0 °F 28.7 °F 30.2 °F 93% 30.17 in - NNW 3.5 mph - N/A   Unknown
8:15 PM 30.2 °F - 28.4 °F 93% 30.17 in - Calm Calm - N/A   Unknown
8:35 PM 30.2 °F - 30.2 °F 100% 30.18 in - Calm Calm - N/A   Unknown
8:55 PM 32.0 °F - 30.2 °F 93% 30.18 in - Calm Calm - N/A   Unknown
9:15 PM 32.0 °F - 30.2 °F 93% 30.18 in - Calm Calm - N/A   Unknown
9:35 PM 30.2 °F - 28.4 °F 93% 30.17 in - Calm Calm - N/A   Unknown
9:55 PM 28.4 °F 24.6 °F 28.4 °F 100% 30.17 in - NW 3.5 mph - N/A   Unknown
10:15 PM 28.4 °F 24.6 °F 28.4 °F 100% 30.17 in - NW 3.5 mph - N/A   Unknown
10:35 PM 28.4 °F 24.6 °F 28.4 °F 100% 30.17 in - NW 3.5 mph - N/A   Unknown
10:55 PM 28.4 °F 24.6 °F 26.6 °F 93% 30.17 in - NW 3.5 mph - N/A   Unknown
11:15 PM 28.4 °F 23.3 °F 28.4 °F 100% 30.16 in - NNW 4.6 mph - N/A   Unknown
11:35 PM 28.4 °F 22.2 °F 28.4 °F 100% 30.17 in - NNW 5.8 mph - N/A   Unknown
11:55 PM 28.4 °F 23.3 °F 26.6 °F 93% 30.16 in - NNW 4.6 mph - N/A   Unknown